[[{"header":{"parameterUnit":"m.s-1","parameterCategory":1,"la1":30.2992,"la2":30.254,"lo1":-89.0895,"lo2":-89.0443,"dy":0.0025,"dx":0.0025,"nx":19,"ny":19,"refTime":"2026-04-19T03:00:00:Z","depth":0,"parameterNumber":2,"parameterNumberName":"U-component_of_WINDS"},"data":[0,0,0,-3.8514,-3.8515,-3.8519,-3.8519,-3.8569,-3.857,0,0,0,0,0,0,0,0,0,0,0,-3.8539,-3.8541,-3.8514,-3.8515,-3.8519,-3.8519,-3.8569,-3.857,0,0,0,0,0,0,0,0,0,0,0,-3.8539,-3.854,-3.8542,-3.8515,-3.8519,-3.8519,-3.8569,-3.855,0,0,0,0,0,0,0,0,0,0,-3.8539,-3.8587,-3.854,-3.8542,-3.8515,-3.8519,-3.8519,-3.8549,-3.8551,-3.8587,0,-3.8624,0,-3.8598,-3.8576,-3.8577,0,0,0,-3.8496,-3.8585,-3.8562,-3.8542,-3.8516,-3.8519,-3.8512,-3.855,-3.8553,-3.8591,-3.8624,-3.8625,-3.8599,-3.8577,-3.8578,-3.8844,-3.8846,0,0,-3.8496,-3.8554,-3.856,-3.8566,-3.8566,-3.8512,-3.8512,-3.8551,-3.8592,-3.8624,-3.8625,-3.86,-3.8578,-3.8578,-3.8842,-3.8845,0,0,0,-3.8508,-3.8555,-3.853,-3.8565,-3.8562,-3.8512,-3.8513,-3.859,-3.8577,-3.8625,-3.86,-3.8578,-3.8579,-3.884,-3.8843,-3.9008,0,0,0,-3.8507,-3.8562,-3.8531,-3.8567,-3.8562,-3.8576,-3.8552,-3.8574,-3.8577,-3.86,-3.8578,-3.858,-3.8837,-3.8842,-3.8998,-3.9077,0,0,0,-3.853,-3.8564,-3.8574,-3.857,-3.8574,-3.8573,-3.8562,-3.8573,-3.8563,-3.8577,-3.8581,-3.8836,-3.8841,-3.8989,-3.9062,-3.9166,0,0,0,-3.8572,-3.8719,-3.8577,-3.8732,-3.8574,-3.8674,-3.8561,-3.8632,-3.8664,-3.8579,-3.8838,-3.8843,-3.8986,-3.9053,-3.9157,-3.9266,-3.9316,0,0,-3.879,-3.8747,-3.8833,-3.8707,-3.8847,-3.8669,-3.8834,-3.8807,-3.8755,-3.8818,-3.8824,-3.9001,-3.9061,-3.9164,-3.9572,-3.9613,0,0,0,-3.8922,-3.8986,-3.901,-3.9043,-3.9026,-3.902,-3.8961,-3.8952,-3.9003,-3.8799,-3.9063,-3.9097,-3.9156,-3.9205,-3.924,-3.9287,-3.8867,-3.8867,-3.8866,-3.9316,-3.9242,-3.9381,-3.9308,-3.9342,-3.9281,-3.9303,-3.928,-3.9194,-3.9258,-3.9277,-3.9534,-3.9594,-3.9619,-3.967,-3.9326,-3.9327,-3.9327,-3.9328,-3.9631,-3.971,-3.9594,-3.9687,-3.9609,-3.9686,-3.9635,-3.9572,-3.9635,-3.9512,-3.956,-3.9435,-3.9666,-3.9706,-3.9339,-3.9337,-3.9336,-3.9335,-3.9334,-3.9883,-3.9908,-3.9894,-3.9936,-3.9977,-3.9897,-3.9964,-3.9889,-3.9819,-3.9866,-3.988,-3.9877,-3.9868,-3.9877,-3.9878,-3.9879,-3.988,-3.9881,-3.9881,-4.0151,-4.013,-4.0194,-4.0191,-4.0204,-4.0211,-4.0153,-4.0164,-4.0158,-4.0098,-4.0098,-4.0009,-3.9701,-3.9627,-3.9895,-3.9892,-3.989,-3.9889,-3.9888,-4.0503,-4.0412,-4.0512,-4.0525,-4.0516,-4.0564,-4.0467,-4.0497,-4.0495,-4.0531,-4.0431,-4.0214,-4.0166,-4.0138,-4.0076,-4.0444,-4.0444,-4.0444,-4.0444,-4.0718,-4.0685,-4.0772,-4.0799,-4.0816,-4.074,-4.0859,-4.0817,-4.0758,-4.0754,-4.0689,-4.06,-4.0575,-4.0541,-4.0504,-4.0446,-4.09,-4.09,-4.09,-4.0932,-4.0898,-4.1013,-4.0954,-4.0942,-4.0934,-4.1045,-4.1082,-4.0997,-4.0917,-4.0749,-4.073,-4.0585,-4.0541,-4.0461,-4.0405,-4.0296,0,0]},{"header":{"parameterUnit":"m.s-1","parameterCategory":1,"la1":30.2992,"la2":30.254,"lo1":-89.0895,"lo2":-89.0443,"dy":0.0025,"dx":0.0025,"nx":19,"ny":19,"refTime":"2026-04-19T03:00:00:Z","depth":0,"parameterNumber":3,"parameterNumberName":"V-component_of_WINDS"},"data":[0,0,0,1.3648,1.3647,1.3603,1.3603,1.3534,1.3533,0,0,0,0,0,0,0,0,0,0,0,1.3656,1.3656,1.3649,1.3647,1.3604,1.3603,1.3534,1.3533,0,0,0,0,0,0,0,0,0,0,0,1.3657,1.3656,1.3655,1.3647,1.3604,1.3603,1.3534,1.3571,0,0,0,0,0,0,0,0,0,0,1.3616,1.3619,1.3656,1.3655,1.3647,1.3604,1.3603,1.3573,1.3569,1.3549,0,1.3533,0,1.3532,1.3528,1.3528,0,0,0,1.365,1.3623,1.3616,1.3655,1.3646,1.3604,1.3624,1.3571,1.3566,1.3544,1.3532,1.353,1.3531,1.3528,1.3527,1.3411,1.3411,0,0,1.3653,1.3645,1.3619,1.3613,1.3622,1.3625,1.3623,1.3568,1.3554,1.3532,1.3529,1.353,1.3527,1.3527,1.3412,1.3411,0,0,0,1.3658,1.3646,1.3641,1.3615,1.3608,1.3624,1.3621,1.3556,1.3556,1.3528,1.3529,1.3527,1.3526,1.3413,1.3412,1.337,0,0,0,1.3659,1.3649,1.3642,1.3637,1.3609,1.3582,1.361,1.3559,1.3554,1.353,1.3527,1.3525,1.3413,1.3412,1.3373,1.335,0,0,0,1.3661,1.365,1.3642,1.3636,1.3618,1.3584,1.358,1.3558,1.3554,1.3528,1.3525,1.3414,1.3412,1.3376,1.3355,1.3317,0,0,0,1.3659,1.3604,1.3641,1.3581,1.3618,1.356,1.358,1.3537,1.3509,1.3526,1.3413,1.3412,1.3376,1.3357,1.3319,1.3281,1.3266,0,0,1.3585,1.3595,1.356,1.3592,1.3526,1.3568,1.3494,1.3475,1.3478,1.3433,1.343,1.3372,1.3355,1.3317,1.3186,1.3174,0,0,0,1.3534,1.3508,1.3493,1.3468,1.3455,1.3441,1.3435,1.3428,1.339,1.3455,1.335,1.334,1.3318,1.33,1.3289,1.327,1.3404,1.3404,1.3404,1.3415,1.3426,1.3368,1.3373,1.3349,1.3345,1.3325,1.3315,1.333,1.3305,1.329,1.321,1.3189,1.3181,1.3161,1.3274,1.3274,1.3274,1.3274,1.3305,1.327,1.3296,1.3249,1.3259,1.3219,1.3213,1.3225,1.3187,1.3222,1.3203,1.3237,1.3167,1.315,1.3271,1.3271,1.3271,1.3272,1.3272,1.3226,1.3211,1.3206,1.3173,1.3145,1.3153,1.3116,1.3127,1.3136,1.3118,1.3103,1.3103,1.3103,1.3111,1.3111,1.311,1.311,1.311,1.311,1.3143,1.314,1.3109,1.3093,1.3079,1.3062,1.3059,1.3045,1.3031,1.3041,1.3041,1.3057,1.3161,1.3184,1.3105,1.3106,1.3107,1.3107,1.3107,1.3022,1.3053,1.3005,1.2991,1.2973,1.2944,1.2961,1.2931,1.2921,1.2902,1.2924,1.3,1.3009,1.3017,1.3036,1.2924,1.2924,1.2924,1.2924,1.2953,1.2961,1.2915,1.2892,1.2872,1.2883,1.2826,1.2823,1.2824,1.2818,1.2837,1.2865,1.2874,1.2878,1.2889,1.2907,1.2765,1.2764,1.2764,1.2878,1.2885,1.2834,1.284,1.2827,1.2815,1.2761,1.2732,1.274,1.2758,1.2813,1.282,1.2866,1.2881,1.2895,1.2913,1.2946,0,0]}]]